Tracking 18840 objects as of 18-November-2017
HD Live streaming from Space Station
objects crossing your sky now

FLOCK 2K 21

Track FLOCK 2K 21 now!
10-day predictions
FLOCK 2K 21 is classified as:


NORAD ID: 42860
Int'l Code: 2017-042AM
Perigee: 461.0 km
Apogee: 477.1 km
Inclination: 97.0 °
Period: 93.8 minutes
Semi major axis: 6840 km
RCS: Unknown
Launch date: July 14, 2017
Source: United States (US)
Launch site: TYURATAM MISSILE AND SPACE COMPLEX (TTMTR)
aabbcc
Your satellite tracking list
Your tracking list is empty




NASA's NSSDC Master Catalog

Two Line Element Set (TLE):
1 42860U 17042AM  17321.80926934 +.00006092 +00000-0 +18311-3 0  9993
2 42860 096.9949 224.1041 0011756 146.9676 213.2305 15.34675969019192
Source of the keplerian elements: AFSPC